AAL215 KRDU-KCLT

Flight info

Callsign AAL215
Flight time N/A
Altitude 20000
Route SHPRD4 CATAR SDAIL CHSLY6
Aircraft B77W/H-SDE1E2E3FGHIJ2J3J4J5M1RWXY/LB1D1

Departure

Time 2026-05-07 22:40
Airport Raleigh-Durham International Airport (KRDU)

Arrival

Time N/A
Airport Charlotte Douglas International Airport (KCLT)
Time Latitude Longitude Altitude Speed Heading
2026-05-07 22:35 35.87993 -78.79010 417 ft 0 kts 315°
2026-05-07 22:37 35.88036 -78.79064 419 ft 10 kts 315°
2026-05-07 22:37 35.88081 -78.79127 420 ft 10 kts 309°
2026-05-07 22:37 35.88098 -78.79207 421 ft 12 kts 250°
2026-05-07 22:37 35.87997 -78.79323 420 ft 22 kts 214°
2026-05-07 22:38 35.87887 -78.79447 418 ft 22 kts 228°
2026-05-07 22:38 35.87781 -78.79573 417 ft 22 kts 218°
2026-05-07 22:38 35.87682 -78.79711 417 ft 21 kts 226°
2026-05-07 22:38 35.87578 -78.79844 417 ft 21 kts 225°
2026-05-07 22:39 35.87469 -78.79970 419 ft 21 kts 223°
2026-05-07 22:39 35.87405 -78.80098 420 ft 19 kts 281°
2026-05-07 22:39 35.87511 -78.80106 427 ft 18 kts 38°
2026-05-07 22:39 35.87627 -78.79969 419 ft 47 kts 45°
2026-05-07 22:40 35.88173 -78.79301 418 ft 173 kts 43°
2026-05-07 22:40 35.89244 -78.77977 1018 ft 227 kts 44°
2026-05-07 22:40 35.90316 -78.76784 3236 ft 197 kts 40°
2026-05-07 22:40 35.91430 -78.75736 4645 ft 215 kts 22°
2026-05-07 22:41 35.92924 -78.75411 4987 ft 226 kts 352°
2026-05-07 22:41 35.94455 -78.75842 4660 ft 224 kts 346°
2026-05-07 22:41 35.95959 -78.76417 4932 ft 236 kts 325°
2026-05-07 22:41 35.97030 -78.78006 5248 ft 251 kts 287°
2026-05-07 22:42 35.97146 -78.80136 5888 ft 252 kts 266°
2026-05-07 22:42 35.97097 -78.82306 6493 ft 251 kts 269°
2026-05-07 22:42 35.97094 -78.84427 7417 ft 243 kts 269°
2026-05-07 22:42 35.97090 -78.86481 8387 ft 234 kts 269°
2026-05-07 22:43 35.97084 -78.88410 9608 ft 212 kts 268°
2026-05-07 22:43 35.97075 -78.90118 10821 ft 184 kts 268°
2026-05-07 22:43 35.97066 -78.91604 11821 ft 166 kts 268°
2026-05-07 22:43 35.97056 -78.92803 12290 ft 167 kts 268°
2026-05-07 22:44 35.97044 -78.94254 12634 ft 177 kts 268°
2026-05-07 22:44 35.97029 -78.95858 12833 ft 198 kts 268°
2026-05-07 22:44 35.97012 -78.97654 13024 ft 220 kts 268°
2026-05-07 22:44 35.96994 -78.99636 13205 ft 241 kts 268°
2026-05-07 22:45 35.96972 -79.01792 13358 ft 261 kts 269°
2026-05-07 22:45 35.96953 -79.03742 13597 ft 272 kts 268°
2026-05-07 22:45 35.96929 -79.06103 14033 ft 277 kts 268°
2026-05-07 22:45 35.96904 -79.08495 14539 ft 279 kts 268°
2026-05-07 22:46 35.96879 -79.10882 15136 ft 277 kts 268°
2026-05-07 22:46 35.96853 -79.13247 15745 ft 275 kts 268°
2026-05-07 22:46 35.96827 -79.15607 16323 ft 274 kts 268°
2026-05-07 22:46 35.96800 -79.17967 16898 ft 274 kts 268°
2026-05-07 22:47 35.96773 -79.20322 17472 ft 274 kts 268°
2026-05-07 22:47 35.96755 -79.21922 17864 ft 274 kts 268°